Theta_e
315 316 316 315 317 318 320 322 322 322 324 326 327 327 327 327 328 328 328 328 328 328 328 328 328 327 327 327 327 327 326 324 318 310 308 308 309 311 313 314 314 315 316
309 311 315 316 315 318 318 319 320 322 323 326 327 327 327 326 325 325 328 328 328 327 327 327 327 327 326 326 327 326 323 317 312 310 310 311 313 314 315 315 316 316 317
311 309 309 314 316 317 318 317 321 321 319 319 322 324 327 327 322 318 319 324 327 328 328 327 326 326 327 327 326 321 310 309 310 312 312 312 313 315 316 317 317 317 318
315 314 310 309 314 314 318 318 322 321 320 318 315 319 325 323 322 321 316 315 316 317 318 321 324 325 323 316 312 317 317 314 315 315 313 313 315 316 317 318 318 318 318
316 317 314 309 310 313 315 317 320 321 321 319 319 318 317 317 317 317 317 316 316 316 317 318 318 319 319 319 319 319 319 318 318 318 317 316 316 317 318 318 318 318 317
316 317 316 310 308 312 314 314 317 320 318 318 317 318 318 318 317 318 317 317 318 319 319 319 319 320 319 319 318 318 319 319 319 319 319 319 319 319 318 318 318 318 315
316 317 317 313 308 311 313 316 318 319 320 319 320 319 317 316 315 315 316 317 318 319 318 319 319 318 317 316 315 314 313 315 315 315 314 314 317 317 317 317 318 318 317
315 317 317 314 309 309 312 314 315 316 318 319 318 317 314 312 311 310 310 310 311 312 312 312 310 310 309 307 305 306 307 308 308 309 310 311 313 314 316 316 316 316 314
314 315 317 314 309 310 310 311 313 315 314 314 314 313 311 308 306 305 305 305 305 305 306 306 307 308 309 310 310 310 311 311 311 311 310 309 308 307 306 306 307 308 306
315 313 315 314 309 309 310 311 310 310 311 311 310 308 307 307 307 307 307 308 310 311 313 314 314 314 314 314 314 314 314 313 313 313 313 313 312 311 309 306 303 302 301
315 314 313 313 310 309 309 309 309 308 308 308 308 309 309 311 313 314 314 315 315 316 316 316 316 315 315 315 314 314 314 313 313 312 312 312 311 310 308 307 304 301 299
316 315 313 312 311 309 310 310 309 309 309 309 310 311 312 314 315 316 316 316 316 315 315 315 314 314 314 313 313 312 312 311 311 311 310 310 310 309 308 306 304 302 299
317 316 314 312 311 309 310 310 310 310 311 311 313 314 314 315 315 314 314 314 313 313 313 313 312 312 313 313 312 312 312 312 311 311 313 313 313 312 309 306 305 302 300
314 317 316 314 312 310 310 311 311 311 312 313 314 314 314 314 314 314 314 314 314 314 314 314 313 314 314 314 315 315 319 321 318 314 314 314 313 314 317 312 309 306 303
316 316 317 317 315 312 310 311 312 312 313 314 313 313 314 314 314 314 315 316 316 316 317 318 319 320 320 321 323 325 326 324 320 318 316 316 314 315 315 311 309 308 304
317 316 316 318 318 316 313 313 311 313 314 314 314 314 314 315 316 317 318 318 319 319 319 320 321 322 323 324 326 325 324 324 322 321 321 319 315 312 310 306 304 304 303
317 317 316 317 318 318 318 315 315 313 312 313 314 314 315 316 317 317 318 318 319 322 323 322 322 323 324 325 325 325 323 322 322 320 313 307 306 306 304 303 302 301 301
320 318 317 317 317 318 319 319 318 319 320 321 321 321 321 321 322 321 321 322 322 322 323 323 323 322 323 323 321 320 319 313 312 314 308 306 306 303 302 301 300 300 299
322 320 319 317 318 317 317 319 320 320 321 322 322 322 322 323 322 322 322 322 322 324 324 323 323 323 320 319 318 308 307 311 309 307 305 304 304 304 303 301 300 300 300
322 321 320 319 318 318 318 319 319 319 320 322 322 321 321 322 322 323 323 325 325 325 323 322 323 315 310 311 308 307 307 306 307 305 304 304 303 303 301 301 300 300 300
320 321 320 319 319 319 318 318 321 322 323 322 320 321 321 322 323 325 325 323 321 319 313 313 311 311 311 308 307 307 305 301 300 299 298 298 298 299 299 298 298 299 299
323 321 321 320 320 319 320 321 322 321 321 320 320 321 323 325 324 320 316 315 317 315 312 312 311 311 307 305 302 299 297 296 296 296 296 296 297 297 298 297 297 296 296
321 320 320 319 320 320 320 320 319 319 320 320 321 322 322 319 318 318 317 315 313 313 308 306 305 301 298 297 295 295 294 294 294 294 295 296 296 296 297 296 296 295 294
319 318 318 319 319 319 319 319 319 319 320 320 320 318 319 319 317 313 309 307 304 304 302 300 297 295 294 293 293 293 293 293 294 295 295 295 295 294 296 294 293 292 292
319 319 318 318 318 318 318 318 319 320 319 320 320 319 317 314 310 308 304 302 301 298 296 294 293 293 293 293 292 292 292 292 293 293 293 292 293 293 293 293 292 292 292
321 321 321 319 318 318 319 320 321 321 321 319 318 313 312 311 307 301 300 297 296 294 293 293 293 292 292 292 292 292 292 292 292 292 292 292 293 294 292 292 292 292 292
Wind_Speed
3 4 5 5 5 7 9 9 10 12 13 12 16 16 15 11 9 13 14 14 15 19 19 19 18 24 23 24 22 18 13 12 16 21 22 21 19 16 14 11 9 8 7
4 5 5 5 5 6 8 10 11 12 13 14 16 17 22 23 21 20 18 19 20 20 17 18 20 21 19 18 16 13 9 11 11 20 23 22 19 15 12 11 10 11 12
5 5 5 6 6 7 6 8 11 13 14 14 13 14 17 19 18 19 18 18 18 17 17 19 20 18 19 18 17 12 13 11 14 15 20 16 15 16 15 14 14 14 12
7 6 5 7 7 9 8 8 9 9 9 12 14 15 15 16 16 14 15 17 19 19 19 19 18 17 16 16 14 11 9 12 10 8 10 16 17 16 17 17 15 15 16
9 7 6 7 10 10 11 9 9 9 10 11 11 12 12 12 12 13 13 12 11 12 14 16 16 14 14 13 10 10 10 11 11 11 11 14 17 16 16 15 16 17 19
12 9 6 6 12 14 12 11 11 10 11 11 11 12 11 10 10 10 10 11 12 13 14 15 15 15 14 12 10 9 8 9 10 10 12 13 13 13 15 16 18 19 19
14 12 9 7 11 16 16 14 13 12 11 10 11 9 7 7 8 9 10 10 11 12 12 12 12 10 8 7 7 7 9 10 10 11 12 11 14 14 15 18 20 23 24
17 16 13 9 12 16 18 17 15 13 12 12 10 8 6 6 7 8 9 11 11 11 10 9 8 8 7 6 6 6 7 7 8 9 9 11 13 15 17 20 22 24 27
20 19 16 12 13 15 17 19 18 16 15 13 12 10 8 8 9 10 11 12 12 12 11 11 10 9 8 7 6 5 3 3 4 6 8 10 12 15 17 19 23 25 26
23 20 18 15 13 14 15 17 18 17 15 15 14 13 13 12 12 13 13 13 13 12 11 11 9 7 5 2 1 3 5 7 9 11 14 16 18 20 21 22 23 25 23
24 22 20 18 15 14 15 16 17 18 18 17 16 15 14 15 16 15 14 13 12 10 8 7 6 5 5 6 8 10 12 14 16 19 21 22 24 25 25 25 25 26 25
29 26 23 21 19 19 18 19 20 19 19 18 18 17 17 17 16 14 12 10 9 9 8 7 8 9 10 13 16 16 18 20 22 24 25 25 26 26 25 26 27 29 30
33 30 26 23 23 22 23 23 23 22 21 20 20 19 18 16 15 13 12 11 11 11 11 12 12 13 17 21 21 23 24 26 26 27 27 27 25 25 26 29 29 32 32
37 34 30 28 26 25 25 26 26 25 25 24 23 21 19 17 15 14 14 13 14 15 15 16 17 20 23 24 25 25 25 26 25 25 25 26 28 29 29 30 31 31 35
38 38 35 32 30 29 29 29 29 27 26 25 24 20 20 19 18 17 15 15 17 18 20 20 21 23 21 21 21 23 24 24 23 24 26 28 27 25 27 27 29 30 30
41 41 40 39 36 33 31 30 29 27 25 23 23 22 21 20 18 18 19 20 22 24 26 27 27 20 22 20 18 16 19 20 21 23 26 26 25 27 27 26 26 27 25
46 44 42 42 42 40 37 34 32 29 28 27 26 26 26 26 25 26 28 29 29 28 31 24 19 22 19 16 16 19 20 19 23 22 22 21 21 23 23 23 22 19 20
49 48 45 45 44 43 41 38 34 31 30 27 28 29 28 27 29 32 32 29 25 26 23 19 18 19 16 12 13 16 15 14 13 18 19 19 19 20 22 21 19 21 21
46 51 51 48 46 44 41 40 38 33 30 28 30 30 29 29 27 21 19 18 24 19 16 14 12 10 12 11 7 9 9 11 14 13 14 16 18 20 21 19 17 19 21
43 46 51 52 50 47 41 39 39 38 37 28 30 35 32 30 23 15 15 13 12 10 9 10 11 5 1 8 10 6 10 12 12 14 17 18 20 21 19 17 17 16 16
35 38 42 46 49 49 46 44 33 27 24 32 38 33 29 22 14 10 9 8 8 7 8 7 5 4 9 13 9 10 10 12 13 13 15 18 19 19 20 21 19 15 16
29 35 32 38 41 42 36 26 28 31 33 32 28 22 15 13 13 16 15 12 9 7 5 4 2 8 9 8 6 8 10 12 14 17 19 19 19 18 18 17 15 18 19
33 34 28 31 35 35 33 33 32 31 28 24 22 21 23 23 20 17 15 12 7 7 5 7 9 13 9 7 7 10 13 15 16 15 15 15 15 16 13 15 19 22 21
28 27 26 31 35 32 31 28 26 26 25 27 31 32 25 18 19 17 17 15 11 13 15 13 12 11 10 10 11 12 11 11 12 13 15 16 14 16 14 18 19 21 22
20 20 21 26 29 28 29 28 29 33 36 38 31 26 25 24 22 16 17 20 21 19 17 13 12 13 10 9 8 8 10 13 15 15 15 16 17 17 16 19 18 22 24
21 22 24 25 28 31 31 31 40 41 34 30 28 29 26 18 20 25 26 24 20 17 16 15 13 10 7 6 9 12 12 12 12 15 19 20 19 17 21 22 22 24 24
Wind_Direction
150 107 85 86 96 81 89 78 68 74 81 85 99 114 138 134 152 155 154 160 140 145 150 164 168 171 179 182 189 196 199 200 183 167 166 164 164 170 178 184 202 223 241
161 145 127 111 109 107 97 89 91 93 90 88 83 85 95 115 114 107 116 132 144 143 152 164 167 171 170 173 173 179 177 180 182 171 172 171 175 183 192 208 220 230 243
153 143 144 141 128 142 115 104 106 100 95 97 96 94 97 108 104 102 104 114 128 138 149 158 161 167 164 162 164 177 158 168 183 180 179 181 190 202 209 218 226 236 251
162 143 140 153 155 157 143 124 122 112 113 104 107 107 105 105 104 101 107 113 115 116 124 132 139 146 151 148 147 147 144 154 156 163 192 198 206 213 219 226 232 242 250
174 162 152 159 170 164 167 151 141 134 127 124 132 126 122 118 114 118 120 124 127 125 129 130 129 133 142 147 155 174 177 178 182 191 204 211 219 224 228 237 241 252 256
185 176 176 166 173 174 171 166 160 148 141 136 138 146 147 144 138 133 134 140 142 143 146 152 157 163 167 169 176 178 185 208 217 224 232 240 249 254 255 258 250 256 253
189 186 184 181 175 179 179 176 170 169 160 156 155 150 149 153 162 163 167 170 172 173 173 176 180 182 188 193 196 201 205 210 221 235 251 254 259 259 263 265 266 269 269
192 192 189 187 180 181 185 184 182 179 180 182 185 194 196 188 183 178 180 180 180 183 185 185 179 177 179 178 185 190 197 211 223 231 236 238 245 252 258 267 270 269 269
195 194 193 188 185 182 184 187 189 190 190 193 196 198 191 176 164 156 155 152 149 148 146 145 147 150 154 157 163 170 182 213 245 263 272 276 278 277 274 272 270 267 268
198 195 193 189 187 182 181 185 186 187 189 190 187 178 169 161 155 151 148 143 142 142 142 143 145 151 154 163 258 294 297 297 295 294 293 290 288 285 283 279 271 269 266
198 196 195 192 186 182 179 175 174 175 175 173 171 170 165 157 153 151 150 148 151 158 170 179 190 214 244 264 276 284 289 291 291 289 288 288 288 287 287 285 280 275 266
199 197 197 193 189 187 184 179 177 178 177 178 177 174 170 169 168 167 166 168 182 198 213 228 246 260 278 289 292 293 292 290 290 290 289 291 292 292 292 286 281 277 272
203 200 197 195 194 193 190 187 186 186 186 186 184 182 182 184 184 186 191 201 217 233 242 250 268 285 289 290 295 295 295 293 288 285 285 285 286 286 288 286 287 284 280
204 204 200 200 199 199 199 198 198 196 193 192 193 193 197 202 206 211 218 226 239 256 270 282 285 284 285 288 292 293 292 289 282 280 284 286 289 291 290 290 288 287 286
205 206 204 204 205 205 206 206 206 206 205 203 203 205 212 216 222 227 246 264 276 285 292 295 297 296 296 297 296 293 290 284 280 277 279 288 299 301 301 298 296 294 284
207 207 207 207 206 211 211 213 214 216 215 217 221 227 236 243 254 263 271 279 285 290 291 292 295 294 298 292 286 286 290 286 289 296 300 304 307 306 306 303 302 300 291
210 209 208 210 211 210 212 214 215 214 217 220 229 237 246 257 266 272 277 283 291 298 298 294 280 282 278 284 285 288 290 295 299 304 310 312 314 314 314 314 314 305 298
213 215 212 210 214 214 216 216 217 217 220 224 233 243 251 260 268 275 282 286 285 284 282 278 277 276 274 272 288 294 294 305 320 326 318 313 317 321 322 320 316 313 312
215 217 218 219 215 215 218 218 219 221 224 226 236 244 253 262 271 279 283 287 283 273 273 265 263 262 263 261 256 320 319 340 336 327 328 333 333 330 330 326 319 319 322
222 222 222 218 219 221 217 219 220 222 226 226 234 242 251 263 271 272 271 263 273 277 236 223 248 232 32 36 16 13 350 356 5 343 337 337 335 331 328 325 324 323 322
220 222 224 224 224 226 227 226 222 220 215 222 234 240 248 254 253 233 219 184 159 127 142 105 84 32 32 17 15 360 2 357 1 357 356 351 347 340 335 330 328 327 325
222 224 217 219 221 223 219 214 214 218 223 230 231 226 213 207 182 154 140 139 133 121 120 82 21 36 41 39 25 21 16 8 3 1 355 347 343 341 337 337 335 331 334
217 219 207 208 215 211 202 212 225 226 226 219 207 185 165 156 151 148 141 127 121 129 96 92 93 90 83 68 32 23 16 6 356 349 345 346 350 352 350 343 336 334 327
205 209 201 206 210 205 210 209 209 211 199 182 165 156 156 156 147 132 118 104 107 115 112 126 104 86 70 50 34 21 14 8 6 6 9 5 355 348 341 338 336 336 333
197 194 201 205 201 200 199 194 184 174 167 157 154 154 148 141 133 127 126 126 141 134 126 113 99 83 76 63 45 30 26 24 18 11 7 2 357 353 349 347 341 339 336
182 183 185 187 192 193 193 178 161 156 155 157 151 145 135 140 142 139 137 136 134 135 125 113 101 93 84 70 48 34 24 14 8 5 2 358 354 349 341 338 335 337 340